STARLINK-35014, 65429

Orbit data source: Space-Track

STARLINK-35014, 65429 is a payload satellite owned by SpaceX/Seattle (US) in LEO that was launched on Sun, 31 Aug 2025 UTC via an FALCON 9 launch vehicle from the Air Force Eastern Test Range (AFETR). Payload-class satellites include a variety of spacecraft equipped with specific instruments for various scientific and technological missions. These include communications satellites like Starlink; space stations such as the ISS; scientific satellites like the Hubble; Earth observation satellites from companies like Planet Labs, Umbra, and HawkEye 360; GPS; miniature CubeSats for education and research; and military/defense satellites.

Loading next visibility...
Identifier
65429, 2025-192AB
Orbit
LEO
Country
Flag of USUS
Related business
Manufacturer
SpaceX/Seattle
Mission
Operational Commercial Communications
Bus & Motor
STARLINK V2MO, Unknown motor
Mass
575 kg wet, ~530 kg dry
Launch date (UTC)
2025-08-31 (10 months ago)
Launch vehicle
FALCON 9
Launch site
Air Force Eastern Test Range (AFETR)
Object type
Payload
Rocket body
Debris
Shape & HBR
Box + 2 Pan, 17.7 m
Radar Cross Section
36.964 m², Large (>1 m²)

Expand to show TLE details & history
Last TLE update: 2 days ago

TLE from 2 days ago
0 STARLINK-35014
1 65429U 25192AB  26170.27733598  .00013141  00000-0  45492-3 0  9992
2 65429  53.1584 120.7716 0001169  91.1947 268.9188 15.30206386 44932
Epoch: 2026-06-19T06:39Z
TLE epoch observation values (Epoch: 2026-06-19T06:39:21.828Z)
Latitude
-0.00001°
Longitude
113.42203°
Altitude
476.111 km
Speed
7.629 km/s
True Right ascension
08h 03m 05s
True Declination
0° 00' 00"
Sunlit
Object was in daylight at epoch
Visualization orbit readout
Latitude
Unknown
Longitude
Unknown
Altitude
Unknown
Speed
Unknown
Apparent Right ascension
Unknown
Apparent Declination
Unknown
Sunlit
N/A
Visualization observer readout
Local Sidereal Time
07:13:19
Azimuth
Unknown
Elevation
Unknown
Doppler factor
Unknown
Orbital elements
Apogee altitude
476.254 km
Perigee altitude
474.652 km
Semi-major axis
6,853.59 km
Eccentricity
0.00012
Inclination
53.1584°
RAAN
120.7716°
Arg. of periapsis
91.1947°
True anomaly
268.90541°
Mean anomaly
268.9188°
Eccentric anomaly
268.9121°
Mean motion
3.8253 °/min
Orbital period
94.11 mins
BSTAR
0.00045492
Loading maneuver chart data...
Computing Atmospheric mass density...
Loading historical data...
Loading historical data...
Loading historical data...
Loading historical data...
Loading historical data...
Loading historical data...
Loading historical data...

Documentation

Showing up to 5 results
|